Terminal Aerodrome Forecast
Issued by NWS Spokane, WA

Home | Current Version | Previous Version | Text Only | Print | Product List | Glossary On
Versions: 1 2 3 4 5 6 7 8 9 10 11 12 13 14 15 16 17 18 19 20 21 22 23 24 25 26 27 28 29 30 31 32 33 34 35 36 37 38 39 40 41 42 43 44 45 46 47 48
894
FTUS46 KOTX 231734
TAFEAT
TAF
KEAT 231734Z 2318/2418 14006KT P6SM BKN200
     FM232300 13003KT P6SM OVC150
     FM240400 VRB03KT P6SM SCT080 BKN100 OVC120
     FM240700 30004KT P6SM -RA OVC040
     FM241500 VRB04KT 5SM -RA BKN025 OVC040=

USA.gov is the U.S. government's official web portal to all federal, state and local government web resources and services.